• în Republica Moldova
  • Lista ţărilor
  • Pe 7 zile
  • Temperatura apei
  • Hartă satelitară
  • Meteo pe hartă
  • Widget-uri
  • user-avatar
    Intrare

    Meteo pe oră la Linz

    Astăzi, 23 August, Miercuri

    Timp Temperatura Precipitaţii Vânt Presiune Umiditate
    00:00 +14°C° 0 mm 1 m/s 736 mmHg 84%
    01:00 +13°C° 0 mm 1 m/s 736 mmHg 86%
    02:00 +13°C° 0 mm 1 m/s 736 mmHg 88%
    03:00 +12°C° 0 mm 1 m/s 736 mmHg 89%
    04:00 +12°C° 0 mm 1 m/s 736 mmHg 91%
    05:00 +13°C° 0 mm 1 m/s 736 mmHg 87%
    06:00 +14°C° 0 mm 1 m/s 736 mmHg 84%
    07:00 +14°C° 0 mm 0 m/s 736 mmHg 81%
    08:00 +16°C° 0 mm 0 m/s 736 mmHg 73%
    09:00 +21°C° 0 mm 1 m/s 736 mmHg 65%
    10:00 +23°C° 0 mm 1 m/s 736 mmHg 57%
    11:00 +24°C° 0 mm 1 m/s 736 mmHg 53%
    12:00 +25°C° 0 mm 1 m/s 736 mmHg 50%
    13:00 +26°C° 0 mm 1 m/s 735 mmHg 47%
    14:00 +26°C° 0 mm 1 m/s 735 mmHg 48%
    15:00 +26°C° 0 mm 1 m/s 735 mmHg 49%
    16:00 +25°C° 0 mm 1 m/s 735 mmHg 50%
    17:00 +23°C° 0 mm 1 m/s 735 mmHg 59%
    18:00 +19°C° 0 mm 0 m/s 735 mmHg 68%
    19:00 +17°C° 0 mm 0 m/s 735 mmHg 77%
    20:00 +16°C° 0 mm 0 m/s 735 mmHg 78%
    21:00 +18°C° 0 mm 1 m/s 735 mmHg 80%
    22:00 +16°C° 0 mm 1 m/s 735 mmHg 82%
    23:00 +16°C° 0 mm 1 m/s 735 mmHg 83%

    Mâine, 24 August, Joi

    Timp Temperatura Precipitaţii Vânt Presiune Umiditate
    00:00 +15°C° 0 mm 1 m/s 735 mmHg 84%
    01:00 +15°C° 0 mm 1 m/s 735 mmHg 85%
    02:00 +15°C° 0 mm 1 m/s 735 mmHg 85%
    03:00 +15°C° 0 mm 1 m/s 735 mmHg 86%
    04:00 +15°C° 0 mm 1 m/s 735 mmHg 86%
    05:00 +16°C° 0 mm 1 m/s 735 mmHg 83%
    06:00 +18°C° 0 mm 1 m/s 735 mmHg 79%
    07:00 +19°C° 0 mm 1 m/s 735 mmHg 76%
    08:00 +22°C° 0 mm 1 m/s 735 mmHg 69%
    09:00 +24°C° 0 mm 1 m/s 736 mmHg 63%
    10:00 +27°C° 0 mm 1 m/s 736 mmHg 56%
    11:00 +28°C° 0 mm 1 m/s 735 mmHg 54%
    12:00 +28°C° 0 mm 2 m/s 735 mmHg 52%
    13:00 +29°C° 0 mm 2 m/s 735 mmHg 50%
    14:00 +29°C° 0 mm 2 m/s 735 mmHg 52%
    15:00 +29°C° 0 mm 2 m/s 735 mmHg 54%
    16:00 +29°C° 0 mm 2 m/s 735 mmHg 56%
    17:00 +27°C° 0 mm 2 m/s 735 mmHg 66%
    18:00 +25°C° 0 mm 1 m/s 735 mmHg 75%
    19:00 +21°C° 0 mm 0 m/s 735 mmHg 85%
    20:00 +22°C° 0 mm 1 m/s 735 mmHg 86%
    21:00 +22°C° 0 mm 1 m/s 735 mmHg 86%
    22:00 +21°C° 0 mm 1 m/s 735 mmHg 87%
    23:00 +21°C° 0,1 mm 1 m/s 735 mmHg 87%

    Poimâine, 25 August, Vineri

    Timp Temperatura Precipitaţii Vânt Presiune Umiditate
    00:00 +21°C° 0,1 mm 1 m/s 736 mmHg 86%
    01:00 +21°C° 0,1 mm 1 m/s 736 mmHg 86%
    02:00 +21°C° 0 mm 1 m/s 736 mmHg 87%
    03:00 +20°C° 0 mm 1 m/s 735 mmHg 87%
    04:00 +20°C° 0 mm 1 m/s 735 mmHg 88%
    05:00 +20°C° 0 mm 1 m/s 736 mmHg 86%
    06:00 +21°C° 0 mm 1 m/s 736 mmHg 84%
    07:00 +20°C° 0 mm 0 m/s 736 mmHg 83%
    08:00 +24°C° 0 mm 1 m/s 736 mmHg 75%
    09:00 +26°C° 0 mm 1 m/s 736 mmHg 67%
    10:00 +29°C° 0 mm 1 m/s 736 mmHg 59%
    11:00 +29°C° 0,1 mm 1 m/s 736 mmHg 56%
    12:00 +30°C° 0,1 mm 1 m/s 736 mmHg 52%
    13:00 +31°C° 0,1 mm 1 m/s 735 mmHg 49%
    14:00 +31°C° 0 mm 1 m/s 735 mmHg 50%
    15:00 +31°C° 0 mm 1 m/s 735 mmHg 51%
    16:00 +31°C° 0 mm 1 m/s 735 mmHg 52%
    17:00 +28°C° 0 mm 1 m/s 735 mmHg 59%
    18:00 +26°C° 0 mm 1 m/s 735 mmHg 67%
    19:00 +22°C° 0 mm 0 m/s 735 mmHg 75%
    20:00 +23°C° 0 mm 1 m/s 735 mmHg 76%
    21:00 +23°C° 0 mm 1 m/s 735 mmHg 77%
    22:00 +22°C° 0 mm 1 m/s 735 mmHg 77%
    23:00 +22°C° 0 mm 1 m/s 735 mmHg 78%

    26 August, Sâmbătă

    Timp Temperatura Precipitaţii Vânt Presiune Umiditate
    00:00 +21°C° 0 mm 1 m/s 735 mmHg 79%
    01:00 +21°C° 0 mm 1 m/s 735 mmHg 80%
    02:00 +21°C° 0 mm 1 m/s 735 mmHg 80%
    03:00 +20°C° 0 mm 1 m/s 735 mmHg 81%
    04:00 +20°C° 0 mm 1 m/s 735 mmHg 81%
    05:00 +21°C° 0 mm 1 m/s 735 mmHg 79%
    06:00 +22°C° 0 mm 1 m/s 735 mmHg 76%
    07:00 +23°C° 0 mm 1 m/s 735 mmHg 74%
    08:00 +25°C° 0 mm 1 m/s 735 mmHg 67%
    09:00 +28°C° 0 mm 1 m/s 735 mmHg 59%
    10:00 +30°C° 0 mm 1 m/s 735 mmHg 51%
    11:00 +31°C° 0 mm 1 m/s 735 mmHg 49%
    12:00 +32°C° 0 mm 1 m/s 735 mmHg 46%
    13:00 +33°C° 0 mm 1 m/s 735 mmHg 43%
    14:00 +33°C° 0 mm 1 m/s 734 mmHg 45%
    15:00 +33°C° 0 mm 1 m/s 734 mmHg 46%
    16:00 +33°C° 0 mm 1 m/s 734 mmHg 48%
    17:00 +30°C° 0 mm 1 m/s 734 mmHg 55%
    18:00 +28°C° 0 mm 1 m/s 734 mmHg 63%
    19:00 +23°C° 0 mm 0 m/s 734 mmHg 70%
    20:00 +23°C° 0,1 mm 0 m/s 734 mmHg 72%
    21:00 +24°C° 0,1 mm 1 m/s 734 mmHg 74%
    22:00 +23°C° 0,1 mm 1 m/s 734 mmHg 75%
    23:00 +23°C° 0,4 mm 1 m/s 734 mmHg 76%

    27 August, Duminică

    Timp Temperatura Precipitaţii Vânt Presiune Umiditate
    00:00 +22°C° 0,4 mm 1 m/s 734 mmHg 77%
    01:00 +22°C° 0,4 mm 1 m/s 734 mmHg 78%
    02:00 +22°C° 0,2 mm 1 m/s 734 mmHg 78%
    03:00 +21°C° 0,2 mm 1 m/s 734 mmHg 78%
    04:00 +21°C° 0,2 mm 1 m/s 734 mmHg 78%
    05:00 +22°C° 0,1 mm 1 m/s 734 mmHg 77%
    06:00 +23°C° 0,1 mm 1 m/s 734 mmHg 77%
    07:00 +22°C° 0,1 mm 0 m/s 734 mmHg 76%
    08:00 +24°C° 0 mm 0 m/s 734 mmHg 68%
    09:00 +28°C° 0 mm 1 m/s 734 mmHg 61%
    10:00 +30°C° 0 mm 1 m/s 734 mmHg 53%
    11:00 +31°C° 0 mm 1 m/s 734 mmHg 51%
    12:00 +32°C° 0 mm 1 m/s 733 mmHg 48%
    13:00 +33°C° 0 mm 1 m/s 733 mmHg 46%
    14:00 +32°C° 0 mm 1 m/s 733 mmHg 48%
    15:00 +32°C° 0 mm 1 m/s 733 mmHg 50%
    16:00 +32°C° 0 mm 1 m/s 732 mmHg 53%
    17:00 +30°C° 0 mm 1 m/s 732 mmHg 61%
    18:00 +27°C° 0 mm 1 m/s 732 mmHg 70%
    19:00 +25°C° 0 mm 1 m/s 732 mmHg 78%
    20:00 +25°C° 0 mm 1 m/s 733 mmHg 80%
    21:00 +24°C° 0 mm 1 m/s 733 mmHg 81%
    22:00 +24°C° 0 mm 1 m/s 733 mmHg 82%
    23:00 +23°C° 0,2 mm 1 m/s 733 mmHg 83%

    28 August, Luni

    Timp Temperatura Precipitaţii Vânt Presiune Umiditate
    00:00 +23°C° 0,2 mm 1 m/s 733 mmHg 84%
    01:00 +23°C° 0,2 mm 1 m/s 733 mmHg 85%
    02:00 +22°C° 0,1 mm 1 m/s 733 mmHg 86%
    03:00 +22°C° 0,1 mm 1 m/s 733 mmHg 87%
    04:00 +21°C° 0,1 mm 1 m/s 733 mmHg 89%
    05:00 +22°C° 0,4 mm 1 m/s 734 mmHg 88%
    06:00 +22°C° 0,4 mm 1 m/s 734 mmHg 88%
    07:00 +21°C° 0,4 mm 2 m/s 734 mmHg 88%
    08:00 +24°C° 0,4 mm 2 m/s 734 mmHg 83%
    09:00 +25°C° 0,4 mm 2 m/s 735 mmHg 79%
    10:00 +26°C° 0,4 mm 3 m/s 735 mmHg 74%
    11:00 +27°C° 0,8 mm 3 m/s 735 mmHg 70%
    12:00 +27°C° 0,8 mm 3 m/s 734 mmHg 67%
    13:00 +28°C° 0,8 mm 4 m/s 734 mmHg 63%
    14:00 +28°C° 0,4 mm 3 m/s 734 mmHg 65%
    15:00 +28°C° 0,4 mm 3 m/s 735 mmHg 66%
    16:00 +27°C° 0,4 mm 3 m/s 735 mmHg 68%
    17:00 +26°C° 0,1 mm 2 m/s 735 mmHg 74%
    18:00 +24°C° 0,1 mm 2 m/s 735 mmHg 81%
    19:00 +22°C° 0,1 mm 1 m/s 735 mmHg 88%
    20:00 +22°C° 0 mm 1 m/s 736 mmHg 89%
    21:00 +21°C° 0 mm 1 m/s 736 mmHg 90%
    22:00 +20°C° 0 mm 1 m/s 736 mmHg 91%
    23:00 +20°C° 0 mm 1 m/s 736 mmHg 92%
    Arată mai mult